GW4017 Weather Reports


Display with metric or nautical units.
time (UTC)temp
F
wind
direction
speed
MPH
gust
MPH
rain 1hr
in
rain 24hr
in
rain mn
in
humidity
%
barometer
mb
20260906230043 62 0 0.0 2.0 0.00 0.24 0.10 81 1015.5
20260906224551 62 0 0.0 1.0 0.00 0.24 0.10 81 1015.7
20260906223049 61 0 0.0 1.0 0.00 0.24 0.10 83 1015.7
20260906221549 61 0 0.0 0.0 0.00 0.24 0.10 82 1016.1
20260906220047 61 0 0.0 0.0 0.00 0.24 0.10 82 1016.2
20260906214552 61 0 0.0 0.0 0.00 0.24 0.10 81 1016.3
20260906213054 61 0 0.0 0.0 0.00 0.24 0.10 81 1016.3
20260906211549 60 0 0.0 0.0 0.00 0.24 0.10 84 1016.3
20260906210043 60 102 0.0 1.0 0.00 0.24 0.10 84 1016.3
20260906204559 59 0 1.0 5.0 0.00 0.24 0.10 85 1016.3
20260906203057 59 111 0.0 3.0 0.00 0.24 0.10 86 1016.3
20260906201548 59 97 0.0 7.0 0.00 0.24 0.10 86 1016.4
20260906200043 59 110 1.0 4.0 0.00 0.24 0.10 86 1016.4
20260906194553 59 0 0.0 1.0 0.00 0.24 0.10 86 1016.7
20260906193057 59 0 0.0 1.0 0.00 0.24 0.10 87 1016.6
20260906191547 59 0 0.0 0.0 0.00 0.24 0.10 87 1016.8
20260906190050 60 0 0.0 1.0 0.00 0.24 0.10 86 1017.0
20260906184549 60 0 0.0 0.0 0.00 0.24 0.10 86 1017.1
20260906183049 60 0 0.0 0.0 0.00 0.24 0.10 86 1017.2
20260906181549 60 0 0.0 3.0 0.00 0.24 0.10 85 1017.1
20260906180104 60 29 0.0 7.0 0.00 0.24 0.10 86 1016.8
20260906174548 59 0 0.0 8.0 0.00 0.24 0.10 88 1017.2
20260906173048 57 19 6.0 11.0 0.00 0.24 0.10 87 1017.7
20260906171558 56 18 8.0 13.0 0.00 0.24 0.10 88 1017.8
20260906164549 55 47 2.0 9.0 0.00 0.24 0.10 91 1017.5
20260906163056 54 353 7.0 9.0 0.00 0.24 0.10 90 1018.7
20260906161550 54 338 3.0 5.0 0.00 0.24 0.10 91 1018.8
20260906160055 54 326 4.0 7.0 0.00 0.24 0.10 92 1019.1
20260906154548 53 332 5.0 7.0 0.02 0.24 0.10 92 1019.1
20260906153052 53 335 5.0 8.0 0.03 0.24 0.10 92 1019.3
20260906151549 53 314 6.0 8.0 0.04 0.24 0.10 92 1019.4
20260906144553 53 326 7.0 10.0 0.07 0.23 0.08 91 1019.6
20260906143055 53 307 7.0 12.0 0.07 0.22 0.07 92 1019.7
20260906141549 53 330 9.0 15.0 0.06 0.21 0.06 92 1019.7
20260906140055 54 295 10.0 16.0 0.04 0.19 0.04 91 1019.7
20260906134543 54 283 6.0 7.0 0.01 0.20 0.01 91 1019.4
20260906133112 55 311 4.0 6.0 0.00 0.19 0.00 90 1019.2
20260906131550 55 302 4.0 6.0 0.00 0.19 0.00 89 1019.3
20260906130104 56 264 4.0 7.0 0.00 0.19 0.00 88 1019.4
20260906124544 56 331 6.0 10.0 0.00 0.23 0.00 87 1019.4
20260906123051 56 324 6.0 10.0 0.00 0.23 0.00 87 1019.4
20260906121547 57 9 4.0 9.0 0.00 0.23 0.00 85 1019.4
20260906120043 57 314 7.0 11.0 0.00 0.23 0.00 87 1019.1
20260906114551 57 328 6.0 10.0 0.00 0.24 0.00 86 1018.8
20260906113048 57 62 3.0 6.0 0.00 0.24 0.00 86 1018.4
20260906111600 57 0 0.0 1.0 0.00 0.24 0.00 87 1018.7
20260906110050 56 0 0.0 7.0 0.00 0.24 0.00 88 1018.6
20260906104551 56 25 4.0 8.0 0.00 0.24 0.00 89 1018.7
20260906103049 56 39 5.0 10.0 0.00 0.24 0.00 89 1018.8
20260906101549 56 32 7.0 13.0 0.00 0.24 0.00 89 1018.9
20260906100055 56 32 6.0 12.0 0.00 0.24 0.00 88 1018.9
20260906094551 56 38 8.0 15.0 0.00 0.24 0.00 87 1019.0
20260906093049 56 34 9.0 14.0 0.00 0.24 0.00 87 1018.9
20260906091548 56 354 8.0 11.0 0.00 0.24 0.00 87 1018.8
20260906090056 56 19 3.0 9.0 0.00 0.24 0.00 88 1018.8
20260906084552 56 4 8.0 15.0 0.00 0.24 0.00 88 1018.6
20260906083051 56 31 8.0 14.0 0.00 0.24 0.00 88 1018.9
20260906081546 55 1 4.0 9.0 0.00 0.24 0.00 89 1019.6
20260906080057 55 305 4.0 8.0 0.00 0.24 0.00 89 1020.0
20260906074551 55 335 7.0 13.0 0.00 0.24 0.00 89 1020.3
20260906073054 55 349 11.0 16.0 0.00 0.24 0.00 88 1020.1
20260906071547 56 9 14.0 18.0 0.00 0.24 0.00 87 1020.3
20260906070057 56 308 4.0 9.0 0.00 0.24 0.00 87 1020.9
20260906064552 56 270 5.0 9.0 0.00 0.24 0.00 86 1020.8
20260906063050 57 338 5.0 13.0 0.00 0.24 0.00 84 1020.8
20260906061552 57 328 5.0 11.0 0.00 0.24 0.00 84 1020.6
20260906060048 57 30 6.0 10.0 0.00 0.24 0.00 85 1020.6
20260906054558 57 337 8.0 12.0 0.00 0.24 0.24 86 1020.6
20260906053058 57 355 6.0 13.0 0.00 0.24 0.24 86 1020.9
20260906051606 57 295 7.0 9.0 0.00 0.24 0.24 87 1021.5
20260906050047 56 23 7.0 14.0 0.01 0.24 0.24 86 1020.0
20260906044550 57 2 9.0 15.0 0.01 0.24 0.24 86 1020.0
20260906043049 57 337 11.0 14.0 0.01 0.24 0.24 87 1020.1
20260906041551 57 311 7.0 10.0 0.01 0.24 0.24 86 1020.4
20260906040122 58 321 6.0 10.0 0.00 0.23 0.23 85 1020.4
20260906034603 58 355 9.0 15.0 0.00 0.23 0.23 85 1019.3
20260906033103 58 354 11.0 17.0 0.11 0.23 0.23 83 1018.8
20260906031542 58 356 10.0 14.0 0.13 0.23 0.23 83 1018.8
20260906030049 58 357 10.0 13.0 0.13 0.23 0.23 83 1018.8
20260906024600 59 13 11.0 17.0 0.13 0.23 0.23 80 1018.7
20260906023042 63 333 10.0 17.0 0.00 0.10 0.10 65 1019.0
20260906021550 63 342 12.0 16.0 0.00 0.10 0.10 66 1017.8
20260906020050 63 23 12.0 18.0 0.00 0.10 0.10 64 1017.7
20260906014548 63 3 11.0 17.0 0.00 0.10 0.10 64 1017.7
20260906013042 64 10 11.0 16.0 0.00 0.10 0.10 62 1017.8
20260906011550 65 1 12.0 20.0 0.00 0.10 0.10 60 1017.8
20260906010052 66 18 12.0 17.0 0.00 0.10 0.10 57 1017.9
20260906004543 68 27 6.0 15.0 0.00 0.10 0.10 55 1017.7
20260906003053 69 0 0.0 2.0 0.00 0.10 0.10 53 1017.7
20260906001549 70 0 0.0 2.0 0.00 0.10 0.10 50 1017.7
20260906000051 71 0 0.0 0.0 0.00 0.10 0.10 46 1017.9
20260905234547 71 0 0.0 0.0 0.00 0.10 0.10 45 1017.9
20260905233058 71 0 0.0 0.0 0.00 0.10 0.10 44 1017.9
20260905231548 72 0 0.0 0.0 0.00 0.10 0.10 43 1018.0